TimeAST,TemperatureF,Dew PointF,Humidity,Sea Level PressureIn,VisibilityMPH,Wind Direction,Wind SpeedMPH,Gust SpeedMPH,PrecipitationIn,Events,Conditions,WindDirDegrees,DateUTC
2:00 AM,72,71,95,30.00,10,Calm,Calm,,,,Scattered Clouds,,2012-12-20 06:00:00
5:00 AM,69.8,69.8,100,29.98,6.2,Calm,Calm,-,N/A,,Scattered Clouds,0,2012-12-20 09:00:00
8:00 AM,72,70,91,30.03,10,Calm,Calm,,,,Partly Cloudy,,2012-12-20 12:00:00
8:00 AM,71.6,69.8,94,30.01,6.2,Calm,Calm,-,N/A,,Scattered Clouds,0,2012-12-20 12:00:00
9:00 AM,75.2,71.6,89,30.04,6.2,Calm,Calm,-,N/A,,Scattered Clouds,0,2012-12-20 13:00:00
10:00 AM,78.8,73.4,83,30.04,-9999.0,ESE,5.8,-,N/A,,Mostly Cloudy,120,2012-12-20 14:00:00
11:00 AM,83,72,63,30.06,10,East,11.2,,,,Mostly Cloudy,90,2012-12-20 15:00:00
11:00 AM,82.4,73.4,74,30.04,6.2,East,11.5,-,N/A,,Mostly Cloudy,90,2012-12-20 15:00:00
12:00 PM,82.4,73.4,74,30.04,6.2,East,11.5,-,N/A,,Scattered Clouds,90,2012-12-20 16:00:00
1:00 PM,82.4,71.6,70,30.01,6.2,East,9.2,-,N/A,,Mostly Cloudy,90,2012-12-20 17:00:00
2:00 PM,84,72,59,30.00,10,East,11.2,,,,Mostly Cloudy,90,2012-12-20 18:00:00
2:00 PM,84.2,71.6,66,29.98,6.2,East,11.5,-,N/A,,Mostly Cloudy,90,2012-12-20 18:00:00
3:00 PM,84.2,73.4,70,29.95,6.2,ENE,9.2,-,N/A,,Mostly Cloudy,60,2012-12-20 19:00:00
4:00 PM,82.4,73.4,74,29.95,6.2,ENE,11.5,-,N/A,,Mostly Cloudy,60,2012-12-20 20:00:00
5:00 PM,81,71,65,29.97,10,ENE,11.2,,,,Mostly Cloudy,60,2012-12-20 21:00:00
5:00 PM,80.6,71.6,74,29.95,6.2,ENE,11.5,-,N/A,,Mostly Cloudy,60,2012-12-20 21:00:00
6:00 PM,78.8,71.6,78,29.95,6.2,ENE,11.5,-,N/A,,Mostly Cloudy,60,2012-12-20 22:00:00
7:00 PM,75.2,71.6,89,29.98,5.0,SSE,8.1,-,N/A,Rain,Light Rain,150,2012-12-20 23:00:00
8:00 PM,73.4,71.6,94,29.98,6.2,Calm,Calm,-,N/A,,Mostly Cloudy,0,2012-12-21 00:00:00
11:00 PM,71.6,71.6,100,29.98,6.2,Calm,Calm,-,N/A,,Mostly Cloudy,0,2012-12-21 03:00:00